Location: Ferchesar
(52.6477°N, 12.4298°E)
Time: 05:31:56
(UTC+02:00)

Vanguard 3 - Pass Details

Date: 02 March 2021
Orbit: 508 x 3262 km, 33.3° (Epoch: 15 April)

Event Time Altitude Azimuth Distance (km) Brightness Sun altitude
Rises 19:28:32 0° 260° (W) 6,565 13.2 -15.5°
Reaches altitude 10° 19:34:32 10° 249° (WSW) 5,095 12.1 -16.4°
Maximum altitude 19:44:09 23° 205° (SSW) 3,217 10.3 -17.8°
Drops below altitude 10° 19:50:49 10° 157° (SSE) 3,395 10.0 -18.8°
Enters shadow 19:51:18 - 154° (SSE) 3,473 10.0 -18.9°
Sets 19:53:51 0° 142° (SE) 3,998 - -19.3°
